Regional Weather Roundup
Issued by NWS State College, PA

Home | Current Version | Previous Version | Text Only | Print | Product List | Glossary Off
Versions: 1 2 3 4 5 6 7 8 9 10 11 12 13 14 15 16 17 18 19 20 21 22 23 24 25 26 27 28 29 30 31 32 33 34 35 36 37 38 39 40 41 42 43 44 45 46 47 48 49 50

173
ASUS41 KCTP 210303
RWRCTP

REGIONAL WEATHER ROUNDUP
NATIONAL WEATHER SERVICE STATE COLLEGE PA
1000 PM EST FRI JAN 20 2017

Note: "fair" indicates few or no clouds below 12,000 feet with no
significant weather and/or obstructions to visibility.

* = STATION THAT DOES NOT REPORT PRECIPITATION /E.G. RAIN...SNOW...ETC/
    THUNDER OR FOG.

PAZ002>004-007>009-013>016-020>023-029>032-210400-
WESTERN PENNSYLVANIA

CITY           SKY/WX    TMP DP  RH WIND       PRES   REMARKS
ERIE           FOG       46  45  96 W6        29.78R VSB 1/2
MEADVILLE      CLOUDY    49  48  97 S5        29.78R FOG
FRANKLIN*        N/A     48  46  93 SW3       29.80R
NEW CASTLE     FOG       45  45 100 CALM      29.80S VSB 3/4
BEAVER COUNTY  NOT AVBL
BUTLER*        MOCLDY    50  48  93 S5        29.82S
PITTSBURGH INT PTCLDY    53  50  89 S5        29.80R
PITTSBURGH     PTCLDY    52  47  83 S9        29.80R
INDIANA*       CLOUDY    48  48 100 SW6       29.83S
LATROBE        MOCLDY    50  50 100 SW7       29.82R
WASHINGTON CO* CLOUDY    45  45 100 CALM      29.81S VSB 3/4
$$

PAZ004>006-010>012-017>019-024>028-033>037-041-042-045-046-049>053-210400-
CENTRAL PENNSYLVANIA

CITY           SKY/WX    TMP DP  RH WIND       PRES   REMARKS
BRADFORD       CLOUDY    44  44 100 S3        29.78S
DUBOIS         FOG       42  40  92 CALM      29.79R VSB 1/4
CLEARFIELD     FOG       39  39 100 N3        29.82R VSB 1/4
JOHNSTOWN      CLOUDY    50  48  93 S8        29.81R
ALTOONA        FOG       40  40 100 CALM      29.85R VSB 1/2
STATE COLLEGE  NOT AVBL
WILLIAMSPORT   CLOUDY    40  38  93 CALM      29.87R FOG
SELINSGROVE    FOG       39  39 100 CALM      29.88F VSB 3/4
FT INDIANTOWN  FOG       38  38 100 CALM      29.90R VSB 1/2
CAPITAL CITY   FOG       40  38  93 CALM      29.90R VSB 1/2
HARRISBURG     FOG       39  39 100 CALM      29.90R VSB 1/2
YORK           FOG       41  41 100 CALM      29.89S VSB 1/2
$$

PAZ038>040-043-044-047-048-054-055-060>062-067>071-210400-
EASTERN PENNSYLVANIA

CITY           SKY/WX    TMP DP  RH WIND       PRES   REMARKS
SCRANTON       CLOUDY    39  39 100 CALM      29.86R FOG
MOUNT POCONO   CLOUDY    34  34 100 SW5       29.84S FOG
ALLENTOWN      CLOUDY    39  37  92 NE5       29.90S FOG
QUAKERTOWN*    CLOUDY    37  37 100 CALM      29.91S
READING        CLOUDY    39  39 100 CALM      29.90R FOG
LANCASTER      FOG       41  41 100 SE5       29.90S VSB 1/2
COATESVILLE    FOG       41  41 100 CALM      29.91R VSB<1/4
POTTSTOWN      CLOUDY    39  39 100 CALM      29.91F FOG
BLUE BELL      CLOUDY    37  37 100 CALM      29.90S
DOYLESTOWN     CLOUDY    41  40  96 CALM      29.90S FOG
WILLOW GROVE   NOT AVBL
NORTH PHILA    CLOUDY    43  41  93 CALM      29.93F FOG
PHILADELPHIA   CLOUDY    42  40  92 CALM      29.93S
$$




USA.gov is the U.S. government's official web portal to all federal, state and local government web resources and services.